Location: Eschertshofen
(49.3064°N, 11.5756°E)
Time: 05:26:22
(UTC+00:00)

Cosmos 2150 Rocket - Pass Details

Date: 18 September 2020
Orbit: 748 x 808 km, 74.0° (Epoch: 20 October)

Event Time Altitude Azimuth Distance (km) Brightness Sun altitude
Rises 18:46:18 0° 182° (S) 3,260 7.1 -14.6°
Reaches altitude 10° 18:48:44 10° 177° (S) 2,346 6.3 -15.0°
Maximum altitude 18:53:49 46° 105° (ESE) 1,062 4.3 -15.8°
Drops below altitude 10° 18:59:00 10° 33° (NNE) 2,393 6.4 -16.6°
Sets 19:01:30 0° 28° (NNE) 3,333 7.3 -16.9°
